User: anonymous   Login
Location: Caltech
(34.1382°N, 118.1253°W)
Time: 10:54:55
(UTC-08:00)
Language:

BREEZE M DEB (TANK) - Orbit

View from above orbital plane
View from above orbital plane
View from above satellite
View from above satellite

Ground track
Ground track

The orbit data is extracted from the following two-line orbital elements,

1 33437U 08057B   18051.52414666 +.00000364 +00000-0 +11690-3 0  9992
2 33437 049.6057 033.1971 4982704 256.5667 045.3562 05.60814964187776
Epoch (UTC): 20 February 2018 12:34:46
Eccentricity: 0.4982704
inclination: 49.6057°
perigee height: 336 km
apogee height: 13671 km
right ascension of ascending node: 33.1971°
argument of perigee: 256.5667°
revolutions per day: 5.60814964
mean anomaly at epoch: 45.3562°
orbit number at epoch: 18777

The dashed part of the orbit path shows where the satellite is in the earth's shadow,  

DLR